Location: Ferchesar
(52.6477°N, 12.4298°E)
Time: 21:31:51
(UTC+01:00)

Vanguard 2 Rocket - All Passes

Search period start: 03 December 2021 00:00
Search period end: 13 December 2021 00:00
Orbit: 555 x 3324 km, 32.9° (Epoch: 03 December)

Date Brightness Start Highest point End Pass type
(mag) Time Alt. Az. Time Alt. Az. Time Alt. Az.
03 Dec - 01:13:01 10° SW 01:17:44 12° SW 01:22:55 10° SSW night (unlit)
03 Dec - 19:44:28 10° SW 19:50:28 23° SSE 19:59:08 10° ESE visible
03 Dec - 21:55:43 10° WSW 22:03:28 24° S 22:14:32 10° SE visible
04 Dec - 00:10:33 10° WSW 00:17:16 15° SSW 00:25:21 10° S night (unlit)
04 Dec - 18:46:22 10° SSW 18:50:57 18° SSE 18:57:08 10° ESE visible
04 Dec - 20:56:38 10° SW 21:03:23 24° S 21:13:10 10° SE visible
04 Dec - 23:09:50 10° WSW 23:16:52 18° SSW 23:25:55 10° SSE night (unlit)
05 Dec - 17:49:13 10° S 17:51:43 12° SSE 17:54:39 10° SE visible
05 Dec - 19:57:54 10° SW 20:03:35 21° S 20:11:38 10° SE visible
05 Dec - 22:09:58 10° SW 22:16:38 19° SSW 22:25:36 10° SSE visible
06 Dec - 18:59:34 10° SSW 19:04:01 18° SSE 19:10:02 10° SE visible
06 Dec - 21:10:37 10° SW 21:16:35 20° S 21:24:47 10° SSE visible
06 Dec - 23:26:23 10° SW 23:29:57 12° SSW 23:34:00 10° S night (unlit)
07 Dec - 18:01:49 10° S 18:04:43 13° SSE 18:08:13 10° SE visible
07 Dec - 20:11:42 10° SW 20:16:46 19° S 20:23:43 10° SE visible
07 Dec - 22:25:14 10° SW 22:29:49 13° SSW 22:35:20 10° S visible
08 Dec - 19:13:08 10° SSW 19:17:12 16° S 19:22:31 10° SE visible
08 Dec - 21:25:19 10° SW 21:29:50 15° SSW 21:35:29 10° SSE visible
09 Dec - 18:15:04 10° SSW 18:17:50 13° SSE 18:21:10 10° SE visible
09 Dec - 20:26:02 10° SW 20:30:03 15° S 20:35:05 10° SSE visible
10 Dec - 19:27:14 10° SSW 19:30:27 14° S 19:34:23 10° SSE visible
11 Dec - 18:28:58 10° SSW 18:31:02 12° S 18:33:25 10° SSE visible
